Location: Mascot Post Office (historical)
(40.2645°N, 99.5462°W)
Time: 02:46:24
(UTC+00:00)

IGS 5A - Pass Details

Date: 14 July 2020
Orbit: 584 x 588 km, 97.6° (Epoch: 09 August)

Event Time Altitude Azimuth Distance (km) Brightness Sun altitude
Exits shadow 03:56:31 26° 177° (S) 1,149 4.5 -16.9°
Maximum altitude 03:58:45 74° 258° (WSW) 612 3.5 -17.1°
Drops below altitude 10° 04:02:53 10° 344° (NNW) 1,912 7.1 -17.6°
Sets 04:05:04 0° 346° (NNW) 2,817 8.1 -17.9°
